Location: Unspecified
(33.6682°S, 0.0000°E)
Time: 19:19:44
(UTC+00:00)

Vanguard 2 Rocket - All Passes

Search period start: 18 June 2019 00:00
Search period end: 28 June 2019 00:00
Orbit: 554 x 3326 km, 32.9° (Epoch: 17 June)

Date Brightness Start Highest point End Pass type
(mag) Time Alt. Az. Time Alt. Az. Time Alt. Az.
18 Jun - 06:25:23 10° N 06:34:29 17° NNE 06:41:43 10° ENE visible
18 Jun - 08:37:16 10° NW 08:50:25 40° NNE 08:58:21 10° E daylight
18 Jun - 10:54:11 10° WNW 11:05:02 71° NNE 11:11:03 10° E daylight
18 Jun - 13:11:28 10° W 13:18:34 82° N 13:23:04 10° E daylight
18 Jun - 15:26:58 10° W 15:31:06 31° NNW 15:34:38 10° NE daylight
19 Jun - 05:28:34 10° NNE 05:33:21 12° NE 05:37:41 10° NE visible
19 Jun - 07:36:05 10° NNW 07:49:48 33° NNE 07:58:43 10° E daylight
19 Jun - 09:52:16 10° WNW 10:05:05 63° NNE 10:12:09 10° E daylight
19 Jun - 12:10:13 10° W 12:19:07 85° N 12:24:17 10° E daylight
19 Jun - 14:26:37 10° W 14:32:06 50° NNW 14:36:04 10° NE daylight
20 Jun - 06:35:28 10° NNW 06:48:54 27° NNE 06:58:29 10° E visible
20 Jun - 08:50:17 10° NW 09:04:47 54° NNE 09:13:04 10° E daylight
20 Jun - 11:08:25 10° W 11:19:25 82° N 11:25:30 10° E daylight
20 Jun - 13:25:53 10° W 13:32:57 70° NNW 13:37:25 10° ENE daylight
20 Jun - 15:42:01 10° WNW 15:45:09 18° NNW 15:47:55 10° NNE daylight
21 Jun - 05:35:48 10° N 05:47:45 21° NE 05:57:13 10° ENE visible
21 Jun - 07:48:30 10° NW 08:04:09 46° NNE 08:13:42 10° E daylight
21 Jun - 10:06:14 10° WNW 10:19:26 76° NNE 10:26:37 10° E daylight
21 Jun - 12:24:37 10° W 12:33:32 82° N 12:38:42 10° E daylight
21 Jun - 14:41:13 10° W 14:46:13 32° NNW 14:49:58 10° NE daylight
22 Jun - 04:37:57 10° NNE 04:46:27 14° NE 04:53:58 10° ENE visible
22 Jun - 06:47:09 10° NNW 07:03:12 38° NNE 07:13:54 10° E daylight
22 Jun - 09:03:53 10° WNW 09:19:07 68° NNE 09:27:36 10° E daylight
22 Jun - 11:22:47 10° W 11:33:50 86° N 11:39:55 10° E daylight
22 Jun - 13:40:20 10° W 13:47:12 52° NNW 13:51:36 10° NE daylight
23 Jun - 05:46:27 10° NNW 06:01:59 31° NNE 06:13:27 10° E visible
23 Jun - 08:01:37 10° NW 08:18:26 60° NNE 08:28:21 10° E daylight
23 Jun - 10:20:28 10° W 10:33:50 84° N 10:41:02 10° E daylight
23 Jun - 12:39:01 10° W 12:47:53 71° NNW 12:53:02 10° ENE daylight
23 Jun - 14:56:14 10° W 15:00:07 19° NW 15:03:14 10° N daylight
24 Jun - 04:46:46 10° N 05:00:38 24° NE 05:12:02 10° E visible
24 Jun - 06:59:42 10° NW 07:17:25 51° NNE 07:28:45 10° E daylight
24 Jun - 09:17:52 10° WNW 09:33:28 79° N 09:42:01 10° E daylight
24 Jun - 11:37:12 10° W 11:48:15 82° N 11:54:19 10° ENE daylight
24 Jun - 13:54:54 10° W 14:01:13 35° NNW 14:05:29 10° NE daylight
25 Jun - 03:48:41 10° N 03:59:14 17° NE 04:08:48 10° ENE visible
25 Jun - 05:58:22 10° NNW 06:16:07 43° NNE 06:28:42 10° E visible
25 Jun - 08:15:15 10° WNW 08:32:43 72° NNE 08:42:49 10° E daylight
25 Jun - 10:34:51 10° W 10:48:14 87° N 10:55:28 10° E daylight
25 Jun - 12:53:27 10° W 13:02:05 54° NNW 13:07:12 10° NE daylight
26 Jun - 04:57:48 10° NNW 05:14:37 34° NE 05:27:58 10° E visible
26 Jun - 07:12:54 10° NW 07:31:37 64° NNE 07:43:18 10° E daylight
26 Jun - 09:32:07 10° W 09:47:51 86° N 09:56:27 10° E daylight
26 Jun - 11:51:35 10° W 12:02:34 72° NNW 12:08:38 10° ENE daylight
26 Jun - 14:09:51 10° W 14:15:00 22° NW 14:18:47 10° N daylight
27 Jun - 03:58:16 10° N 04:13:09 26° NE 04:26:14 10° E visible
27 Jun - 06:11:04 10° NW 06:30:11 55° NNE 06:43:26 10° E visible
27 Jun - 08:29:17 10° WNW 08:47:03 82° N 08:57:13 10° E daylight
27 Jun - 10:49:15 10° W 11:02:38 83° N 11:09:51 10° ENE daylight
27 Jun - 13:07:58 10° W 13:16:03 38° NNW 13:21:03 10° NE daylight
